This demonstration page uses our WeatherBlox Daily Observations layout. Learn more.

Left ArrowRight Arrow

Hourly Observations for June 16, 2021

Temp ( °F °C ) Dew Point ( °F °C ) Humidity (%) Winds ( mph kmh ) Pressure ( in mb ) Visibility ( mi km ) Precip ( " mm )
12:54 am 00:54 Clear 79 26.1 61 16.1 54 54 ESE 8 13 30.00 1016 10 16 N/A
1:54 am 01:54 Clear 79 26.1 60 15.6 52 52 SE 9 15 29.99 1016 10 16 N/A
2:54 am 02:54 Clear 78 25.6 56 13.3 47 47 SSE 10 17 29.98 1015 10 16 N/A
3:54 am 03:54 Clear 75 23.9 57 13.9 54 54 SSE 8 13 29.98 1015 10 16 N/A
4:54 am 04:54 Clear 73 22.8 58 14.4 59 59 SSW 3 6 29.97 1015 10 16 N/A
5:54 am 05:54 Clear 72 22.2 58 14.4 61 61 N N/A 29.98 1015 10 16 N/A
6:54 am 06:54 Sunny 72 22.2 61 16.1 68 68 S 7 11 29.98 1015 10 16 N/A
7:54 am 07:54 Sunny 76 24.4 62 16.7 62 62 S 7 11 29.97 1015 10 16 N/A
8:54 am 08:54 Sunny 80 26.7 65 18.3 60 60 SSE 8 13 29.97 1015 10 16 N/A
9:54 am 09:54 Sunny 84 28.9 66 18.9 55 55 S 9 15 29.97 1015 10 16 N/A
10:54 am 10:54 Sunny 87 30.6 67 19.4 51 51 SSE 9 15 29.95 1014 10 16 N/A
11:54 am 11:54 Sunny 91 32.8 69 20.6 49 49 SSE 9 15 29.94 1014 10 16 N/A
12:54 pm 12:54 Sunny 93 33.9 68 20 44 44 S 6 9 29.93 1013 10 16 N/A
1:54 pm 13:54 Sunny 96 35.6 67 19.4 39 39 SSW 6 9 29.91 1013 10 16 N/A
2:54 pm 14:54 Sunny 99 37.2 68 20 37 37 S 10 17 29.88 1012 10 16 N/A
3:54 pm 15:54 Sunny 101 38.3 63 17.2 29 29 S 13 20 29.86 1011 10 16 N/A
4:54 pm 16:54 Sunny 102 38.9 60 15.6 25 25 SSW 10 17 29.85 1011 10 16 N/A
5:54 pm 17:54 Sunny 100 37.8 63 17.2 30 30 S 12 19 29.84 1011 10 16 N/A
6:54 pm 18:54 Sunny 98 36.7 64 17.8 33 33 S 13 20 29.83 1010 10 16 N/A
7:54 pm 19:54 Sunny 93 33.9 71 21.7 49 49 SSE 12 19 29.83 1010 10 16 N/A
8:54 pm 20:54 Sunny 86 30 70 21.1 59 59 S 10 17 29.83 1010 10 16 N/A
9:54 pm 21:54 Clear 83 28.3 70 21.1 65 65 S 12 19 29.83 1010 10 16 N/A
10:54 pm 22:54 Clear 83 28.3 70 21.1 65 65 SSE 10 17 29.86 1011 10 16 N/A
11:54 pm 23:54 Clear 81 27.2 70 21.1 69 69 S 12 19 29.85 1011 10 16 N/A

Powered by AerisWeather